Location: The Saddle
(36.8333°N, 80.3417°W)
Time: 15:50:52
(UTC-05:00)

A-11 Canister half - Pass Details

Date: 17 December 2023
Orbit: 1526 x 1682 km, 47.3° (Epoch: 01 March)

Event Time Altitude Azimuth Distance (km) Brightness Sun altitude
Rises 01:27:17 0° 285° (WNW) 4,892 - -69.8°
Reaches altitude 10° 01:34:40 10° 249° (WSW) 3,856 - -68.6°
Maximum altitude 01:36:06 10° 240° (WSW) 3,814 - -68.3°
Drops below altitude 10° 01:37:32 10° 232° (SW) 3,835 - -68.1°
Sets 01:44:49 0° 195° (SSW) 4,765 - -66.8°
